This is the latest recevied weather packets stored in our database for station/object K7YVO. If no packets are shown the sender has not sent any weather packets the latest 10 day(s).
| Time | Temp. | Humidity | Pressure | Rain* | Wind** | Luminosity | Snow |
|---|---|---|---|---|---|---|---|
| 1777913155 | 13.33° C | 83% | 1015.3 hPa | 0 mm | - | 207 W/m² | - |
| 1777912852 | 12.78° C | 85% | 1015.4 hPa | 0 mm | - | 183 W/m² | - |
| 1777912548 | 12.78° C | 86% | 1015.5 hPa | 0 mm | - | 161 W/m² | - |
| 1777912245 | 12.78° C | 85% | 1015.8 hPa | 0 mm | - | 153 W/m² | - |
| 1777911941 | 12.78° C | 85% | 1015.8 hPa | 0 mm | - | 152 W/m² | - |
| 1777911637 | 12.22° C | 87% | 1015.5 hPa | 0 mm | - | 145 W/m² | - |
| 1777911333 | 12.22° C | 88% | 1015.5 hPa | 0 mm | - | 128 W/m² | - |
| 1777911031 | 12.22° C | 88% | 1015.5 hPa | 0 mm | - | 130 W/m² | - |
| 1777910729 | 12.22° C | 88% | 1015.6 hPa | 0 mm | - | 123 W/m² | - |
| 1777910425 | 11.67° C | 88% | 1015.8 hPa | 0 mm | - | 116 W/m² | - |
| 1777910121 | 11.67° C | 88% | 1015.6 hPa | 0 mm | - | 117 W/m² | - |
| 1777909820 | 12.22° C | 88% | 1015.8 hPa | 0 mm | - | 104 W/m² | - |
| 1777909516 | 11.67° C | 88% | 1015.5 hPa | 0 mm | - | 106 W/m² | - |
| 1777909213 | 11.67° C | 88% | 1015.6 hPa | 0 mm | - | 107 W/m² | - |
| 1777908911 | 11.67° C | 89% | 1015.6 hPa | 0 mm | - | 108 W/m² | - |
| 1777908609 | 11.67° C | 89% | 1015.6 hPa | 0 mm | - | 107 W/m² | - |
| 1777908305 | 11.67° C | 88% | 1015.6 hPa | 0 mm | - | 103 W/m² | - |
| 1777908001 | 11.67° C | 89% | 1015.4 hPa | 0 mm | - | 94 W/m² | - |
| 1777907697 | 11.67° C | 89% | 1015.4 hPa | 0 mm | - | 104 W/m² | - |
| 1777907392 | 11.67° C | 88% | 1015.3 hPa | 0 mm | - | 100 W/m² | - |
| 1777907089 | 12.22° C | 88% | 1015.4 hPa | 0 mm | - | 99 W/m² | - |
| 1777906787 | 11.67° C | 88% | 1015.2 hPa | 0 mm | - | 96 W/m² | - |
| 1777906484 | 11.67° C | 88% | 1015.3 hPa | 0 mm | - | 93 W/m² | - |
| 1777906180 | 11.67° C | 89% | 1015.1 hPa | 0 mm | - | 87 W/m² | - |
| 1777905877 | 11.67° C | 89% | 1015 hPa | 0 mm | - | 73 W/m² | - |
* Rain latest hour (hover to see other rain measurements)
** Current wind speed in m/s (hover to see current wind gust speed)